カタログに戻る

ATLAS 28E DEB

運用中PO
NORAD 20576·DEBRIS·🇺🇸 United States

打ち上げ Apr 11, 1990 から Vandenberg Space Force Base

Loading…

次のパス (今後24時間)

TLE

最新Source: Space-Track

元期: Sep 14, 2026, 10:20 UTC

1 20576U 90031H   26257.43077554  .00010801  00000-0  32562-3 0  9991
2 20576  89.4103 261.7570 0024862 198.6069 161.4278 15.33889397400960

AllMySatでATLAS 28E DEBをリアルタイム追跡

Download on the App Store